Theta_e
348 343 343 343 341 341 340 339 339 339 341 335 332 335 337 337 337 338 334 336 338 338 337 339 342 342 338 337 337 333 333 336 333 338 341 341 344 342 342 343 332 339 340
346 341 339 339 338 335 333 333 335 335 333 331 333 337 333 335 334 334 336 337 337 340 337 340 341 340 338 334 333 337 339 337 341 337 339 340 340 340 338 327 336 338 327
348 333 330 329 331 333 333 332 331 329 329 328 328 330 333 332 333 333 337 340 336 337 340 340 339 339 336 333 337 338 339 340 343 343 336 329 335 341 324 326 338 338 337
345 345 329 333 336 337 335 340 339 336 338 332 331 330 331 334 335 334 335 337 338 341 338 339 340 335 333 334 341 343 343 343 342 346 343 334 340 329 325 332 341 340 336
346 347 340 341 339 337 334 338 337 336 339 336 332 340 330 331 334 335 335 335 341 342 343 342 340 337 334 329 338 340 340 342 345 347 345 335 325 327 329 333 334 337 327
350 341 342 341 337 336 334 340 336 338 339 335 329 328 329 332 333 337 335 334 337 341 342 343 342 337 335 337 344 344 343 341 342 339 343 337 331 323 323 330 337 336 326
348 337 338 338 339 337 337 340 335 338 339 337 336 339 339 338 333 335 339 335 335 341 341 339 339 335 333 336 339 342 342 342 344 343 328 339 338 324 323 325 330 333 325
347 348 340 338 338 336 340 339 337 338 338 339 335 337 338 337 337 339 340 333 336 341 339 339 337 333 332 333 340 340 340 342 345 344 326 324 326 328 325 325 327 330 331
349 347 343 341 339 337 341 336 338 337 337 338 337 335 334 337 332 337 336 335 340 338 337 337 333 329 329 332 340 339 339 340 343 343 330 329 329 328 334 331 327 329 336
348 348 347 343 343 339 339 335 337 336 337 338 335 335 338 337 333 331 334 338 338 337 335 332 328 327 324 335 340 341 341 342 340 341 331 336 337 327 328 340 327 326 328
347 347 348 348 347 346 336 336 337 336 336 340 342 344 344 342 342 341 336 337 336 337 340 344 340 337 340 339 338 341 343 344 345 344 330 337 339 328 326 327 325 325 326
347 350 350 350 346 349 346 342 344 346 346 344 343 345 348 345 340 333 337 336 338 342 346 345 346 346 349 348 342 340 342 342 342 339 333 328 327 327 326 326 325 324 324
349 346 345 351 348 351 345 347 349 349 340 345 345 346 345 341 340 333 338 341 343 344 347 346 347 345 346 344 341 340 340 342 342 326 322 326 324 329 324 323 324 325 325
349 350 351 348 344 350 336 347 350 347 346 347 345 343 343 346 346 346 344 346 347 346 345 347 339 342 342 343 340 339 338 340 341 342 329 325 325 325 325 326 326 326 327
349 351 349 345 346 349 344 350 347 347 347 342 343 345 346 343 344 342 342 344 340 344 347 345 346 349 345 343 344 342 342 343 345 345 333 327 328 327 327 328 328 327 326
347 347 349 349 343 352 349 347 340 342 348 348 345 345 346 344 344 342 344 340 345 347 346 345 344 347 343 344 343 344 344 342 346 347 346 344 344 330 329 327 325 324 324
346 348 347 348 346 349 348 349 348 349 349 348 344 347 346 346 347 345 346 344 345 343 341 345 343 346 347 343 343 346 345 346 338 346 345 347 347 346 333 328 329 328 328
346 347 346 346 348 348 346 349 346 339 339 349 348 346 346 344 346 343 345 346 345 345 344 346 344 346 345 344 344 345 342 345 346 346 345 347 345 347 346 330 332 331 334
346 347 346 347 347 350 347 351 351 347 349 349 351 349 345 345 344 345 346 346 341 345 347 346 342 343 344 344 343 343 342 344 347 346 344 346 348 348 348 338 348 347 343
346 347 346 348 348 350 347 350 352 350 350 352 347 350 348 348 343 347 346 342 347 347 346 345 345 343 344 344 345 342 345 345 344 346 345 348 345 347 348 342 350 351 348
347 347 347 348 349 351 348 348 348 351 352 349 350 351 351 349 344 347 349 342 348 347 348 340 341 345 345 343 347 343 342 343 344 345 345 346 345 347 344 347 349 344 348
346 347 347 350 347 351 345 349 350 348 353 350 351 349 350 342 346 350 346 345 349 350 343 347 349 347 341 343 347 347 343 344 343 343 343 344 344 345 346 347 346 347 350
345 346 348 351 344 347 346 349 343 352 352 350 351 350 349 345 346 350 350 349 348 349 340 345 349 349 343 340 347 348 348 347 342 344 345 344 347 346 349 349 351 351 353
344 345 348 351 342 347 351 348 351 349 351 352 351 350 349 348 349 342 347 348 348 349 340 348 345 346 347 345 343 345 345 347 352 345 345 348 349 349 348 351 350 353 354
344 346 347 350 343 350 352 349 346 347 341 350 349 347 350 351 349 350 343 340 345 346 346 344 345 343 348 349 348 344 346 346 347 348 347 348 348 348 349 350 352 352 353
345 345 347 348 347 347 348 350 349 351 349 351 349 347 350 346 351 350 347 346 349 348 349 348 339 341 348 348 346 346 349 350 350 351 349 347 347 347 347 348 349 350 353
Wind_Speed
15 18 17 16 16 15 13 12 12 12 12 12 12 13 14 14 16 16 16 17 17 18 17 17 19 19 21 23 24 25 26 26 23 23 24 24 24 25 24 22 20 22 19
20 20 19 18 16 15 13 12 12 11 11 11 11 12 11 13 9 12 14 16 16 17 18 18 18 19 20 22 25 26 28 29 29 24 21 23 23 20 18 18 20 20 19
21 21 19 17 16 14 13 12 11 10 10 9 8 9 10 9 9 10 13 15 16 18 19 20 19 19 20 24 27 29 28 26 24 25 19 20 20 19 18 20 20 18 18
21 19 19 16 14 13 13 12 11 11 11 11 10 9 9 10 10 11 13 14 16 17 18 19 20 18 20 22 23 24 21 17 11 17 15 13 18 18 19 19 18 18 16
21 18 18 15 14 12 12 11 10 11 10 11 11 11 10 10 11 12 13 13 15 16 15 15 18 19 20 23 25 23 22 26 24 24 13 10 17 17 18 16 15 14 15
19 17 18 16 14 12 11 11 11 11 11 12 11 11 12 12 11 12 13 13 15 15 15 14 16 17 18 22 24 23 21 21 17 13 11 14 17 16 14 14 15 15 16
20 17 17 15 13 12 12 12 12 11 12 12 16 13 14 13 12 12 13 13 15 15 14 17 15 15 17 20 21 23 25 19 21 11 9 15 15 14 14 14 15 14 14
21 16 14 14 13 12 12 13 13 13 13 14 15 14 15 14 15 14 14 14 15 14 15 14 14 16 18 19 21 22 21 21 12 6 10 14 12 12 14 14 13 12 12
22 15 13 13 13 12 13 13 13 13 14 15 15 15 15 16 15 14 15 17 17 16 17 16 16 17 18 21 21 20 19 19 10 11 11 13 12 11 12 13 12 11 11
18 15 10 9 10 12 13 13 13 14 15 16 18 21 20 19 19 16 17 17 17 17 18 18 19 21 21 22 22 21 17 16 6 4 4 10 11 11 10 9 8 9 9
18 17 14 10 9 12 13 13 14 16 18 19 16 15 18 17 15 15 15 17 17 20 21 19 19 22 25 24 19 17 15 15 8 6 6 8 8 8 8 9 9 9 8
16 17 17 13 15 20 10 15 12 15 14 16 15 20 17 15 9 17 17 17 20 21 18 17 14 13 8 11 16 13 13 11 5 9 5 6 6 7 9 8 8 8 7
20 12 13 20 16 13 11 14 11 14 10 14 15 17 12 16 15 15 19 19 16 12 10 18 12 11 15 9 8 10 5 8 3 11 7 7 7 7 8 8 7 7 7
27 17 18 14 13 16 9 21 11 13 9 12 13 14 19 15 7 11 11 6 9 10 5 9 19 15 8 11 12 9 8 8 6 9 10 9 9 8 8 7 7 7 7
18 18 11 14 11 8 31 16 14 12 14 9 13 16 10 12 12 11 12 10 8 11 6 9 7 2 12 12 9 9 7 8 6 8 14 14 12 10 9 9 8 8 8
17 14 10 10 12 6 16 11 11 15 11 15 10 14 11 10 10 15 12 10 6 8 8 4 12 13 11 9 6 7 7 4 8 4 8 11 15 15 12 10 10 10 10
15 11 12 11 11 9 14 10 9 16 16 10 8 15 16 10 9 11 13 10 6 5 11 7 7 6 2 8 7 3 11 5 4 10 4 8 11 13 15 12 11 12 12
17 15 13 10 10 10 16 10 5 11 8 12 8 9 13 14 13 15 11 7 5 9 8 5 0 5 9 4 6 7 3 2 8 12 4 5 6 7 11 12 15 14 12
18 15 16 14 11 10 15 8 7 8 11 10 11 9 7 11 15 12 8 7 9 9 7 1 9 6 5 4 6 7 7 3 1 4 7 7 9 4 8 8 12 12 13
17 16 15 13 15 11 15 8 9 12 5 8 6 10 10 9 10 11 11 8 13 7 7 7 6 4 6 8 6 2 1 3 4 3 5 4 5 6 3 11 9 9 12
17 18 18 16 16 14 12 8 6 7 7 10 8 11 10 9 10 10 7 14 10 12 4 6 7 4 6 2 3 2 5 8 6 3 5 4 6 6 4 8 6 6 8
20 19 19 18 16 15 13 10 10 5 6 6 7 9 8 8 17 10 7 15 8 5 8 11 3 2 4 6 10 3 8 7 4 5 4 3 3 3 1 5 6 13 9
21 21 21 19 17 20 12 10 10 5 9 8 5 6 7 8 14 11 11 10 7 6 6 10 5 3 6 5 8 10 6 4 5 5 7 1 6 2 1 5 7 12 12
25 21 21 20 18 21 17 11 9 8 9 9 8 7 9 9 7 9 14 12 13 12 11 6 1 5 3 2 5 6 7 8 7 8 4 7 10 8 9 10 7 9 15
27 24 23 24 21 18 15 18 11 13 11 14 13 9 11 9 7 5 9 13 12 10 13 7 7 7 2 2 2 3 7 4 3 2 13 6 8 4 6 5 5 7 8
28 27 24 26 23 22 20 16 18 11 6 18 12 12 10 10 10 8 6 8 9 9 11 9 8 9 3 4 6 6 6 1 7 8 6 8 4 5 1 4 6 7 7
Wind_Direction
138 135 126 122 116 109 111 108 108 102 97 92 88 86 90 84 75 79 71 75 78 81 83 82 85 86 82 82 85 84 83 83 82 91 92 95 93 94 91 82 84 82 82
143 139 131 124 118 117 114 110 106 103 102 101 98 93 93 91 73 76 76 81 81 82 84 83 85 84 83 85 86 88 85 79 77 76 86 94 93 96 91 87 83 78 76
135 134 127 125 121 115 107 102 102 106 104 102 101 99 95 100 97 89 87 82 82 88 91 84 85 84 82 93 95 90 85 87 93 82 59 89 93 88 84 87 77 76 76
131 132 128 120 110 104 99 98 89 91 92 95 99 105 105 103 101 98 93 90 89 89 92 86 85 83 88 97 97 88 81 73 90 105 83 73 86 83 81 83 77 75 72
129 140 122 118 111 106 100 99 98 99 97 94 102 102 102 106 102 103 101 100 95 93 88 90 84 80 89 99 104 95 85 76 71 96 96 69 84 82 81 85 87 79 73
132 143 125 122 115 111 105 108 103 102 104 94 97 100 103 102 112 108 109 109 102 96 87 89 92 83 93 103 104 96 87 86 92 102 101 80 81 78 89 95 87 74 73
136 138 131 126 121 116 113 108 101 100 106 97 101 94 104 103 107 112 109 110 104 102 91 89 86 82 94 104 108 95 87 81 109 90 96 91 84 78 89 89 88 78 74
125 136 136 132 126 119 114 108 102 102 105 106 109 98 100 99 102 112 110 112 106 99 98 96 91 83 89 99 103 103 97 98 75 64 70 91 89 82 80 81 81 78 76
124 135 124 133 126 120 117 112 107 106 103 105 103 95 95 94 102 111 115 112 105 97 94 89 81 83 88 95 100 97 97 90 92 84 78 89 85 80 80 75 74 76 74
123 128 129 114 109 119 119 114 110 106 100 101 99 98 88 85 94 97 114 112 106 100 92 81 81 79 80 91 92 91 93 101 111 165 74 91 84 76 80 80 68 70 68
128 129 148 134 123 126 118 115 112 109 102 89 104 100 102 77 92 112 113 107 101 95 91 89 90 88 86 82 79 80 83 113 115 28 81 91 82 79 82 76 67 67 66
141 133 136 140 124 124 134 104 94 105 105 96 98 90 91 109 93 112 107 102 104 98 84 85 76 71 80 80 72 70 73 118 74 350 66 78 78 80 75 76 72 66 63
153 183 135 139 128 151 140 137 111 93 95 116 118 100 109 122 88 101 102 98 96 90 72 79 36 59 52 88 74 70 97 129 50 31 57 64 68 68 66 63 61 59 56
140 147 130 148 159 149 167 111 122 117 101 107 108 131 103 101 113 113 97 88 103 97 105 91 79 94 68 88 92 94 92 89 13 23 44 59 59 57 58 59 58 54 51
125 141 143 160 159 164 126 123 143 142 125 128 119 117 117 116 114 121 114 102 90 81 56 72 139 72 110 81 83 89 98 91 33 26 46 52 51 53 55 56 57 55 52
139 137 137 163 160 124 99 115 124 135 143 135 124 119 120 140 130 128 110 107 111 141 111 92 100 78 99 106 81 98 90 106 130 52 27 38 38 47 46 53 56 56 53
155 150 146 154 139 135 135 134 132 167 133 157 144 144 139 144 124 155 134 141 161 164 113 88 71 105 104 106 74 139 75 60 91 107 11 15 21 35 37 46 54 52 49
156 164 153 153 162 136 130 134 134 147 164 137 136 134 150 153 151 128 124 154 179 113 65 70 302 59 133 147 88 104 74 7 64 96 82 59 3 7 20 43 53 48 45
165 168 150 169 158 156 150 143 153 122 124 108 139 150 160 155 151 155 151 166 144 119 132 181 103 88 96 164 131 101 103 218 46 112 52 122 58 6 0 13 47 30 22
160 172 157 168 179 169 140 145 153 147 126 129 149 164 119 129 161 160 167 161 143 138 146 172 131 58 73 59 64 128 72 106 126 53 16 108 359 100 316 21 43 11 8
162 169 174 181 194 179 142 153 169 142 174 150 132 148 119 141 157 127 138 155 140 168 162 114 123 66 51 65 92 168 108 120 134 188 66 132 24 85 333 26 35 334 13
169 176 180 192 198 162 160 187 200 187 186 139 151 141 167 148 142 129 118 143 134 177 170 164 156 128 52 353 353 71 197 174 105 133 171 142 129 39 339 7 31 19 28
175 183 186 195 190 158 171 212 198 166 166 183 155 142 146 130 147 159 152 165 162 150 150 151 88 59 108 16 46 26 48 96 154 120 110 99 96 114 307 330 59 5 33
178 186 192 193 186 166 184 191 205 175 198 166 169 196 148 137 155 162 170 171 169 162 143 118 130 110 104 118 64 22 55 52 79 161 154 81 122 65 66 82 2 5 29
175 180 198 189 190 182 190 175 182 204 184 178 179 162 160 154 139 170 174 174 182 183 174 168 185 182 135 49 155 76 82 45 24 39 184 130 104 80 61 44 52 19 11
173 178 194 193 196 187 191 183 175 190 203 197 196 168 152 161 171 188 195 191 192 179 179 180 195 192 166 106 120 117 35 327 357 42 34 100 122 93 59 2 18 18 11